Tracking 29782 objects as of 13-Oct-2024
HD Live streaming from Space Station
objects crossing your sky now

COSMOS 2268

Track COSMOS 2268 now!
10-day predictions
COSMOS 2268 is classified as:


NORAD ID: 22999
Int'l Code: 1994-011A
Perigee: 1,416.5 km
Apogee: 1,433.8 km
Inclination: 82.6 °
Period: 114.2 minutes
Semi major axis: 7796 km
RCS: 1.1684 m2 (large)
Launch date: February 12, 1994
Source: Commonwealth of Independent States (former USSR) (CIS)
Launch site: PLESETSK MISSILE AND SPACE COMPLEX (PKMTR)
Your satellite tracking list
Your tracking list is empty




NASA's NSSDC Master Catalog

Two Line Element Set (TLE):
1 22999U 94011A   24286.74261615  .00000030  00000-0  11193-3 0  9991
2 22999  82.5825  10.6034 0011075 143.1768  26.6685 12.61203644411559
Source of the keplerian elements: AFSPC